TimeCDT,TemperatureF,Dew PointF,Humidity,Sea Level PressureIn,VisibilityMPH,Wind Direction,Wind SpeedMPH,Gust SpeedMPH,PrecipitationIn,Events,Conditions,WindDirDegrees,DateUTC
12:15 AM,77.0,77.0,100,29.81,10.0,North,6.9,-,N/A,,Clear,350,2013-08-25 05:15:00
12:35 AM,75.2,75.2,100,29.82,10.0,Calm,Calm,-,N/A,,Clear,0,2013-08-25 05:35:00
12:55 AM,73.4,73.4,100,29.83,10.0,South,5.8,-,N/A,,Clear,180,2013-08-25 05:55:00
1:15 AM,73.4,73.4,100,29.83,10.0,Calm,Calm,-,N/A,Thunderstorm,Clear,0,2013-08-25 06:15:00
1:35 AM,73.4,73.4,100,29.83,10.0,Calm,Calm,-,N/A,Thunderstorm,Clear,0,2013-08-25 06:35:00
1:55 AM,73.4,73.4,100,29.85,10.0,Calm,Calm,-,N/A,Thunderstorm,Clear,0,2013-08-25 06:55:00
2:15 AM,73.4,73.4,100,29.88,9.0,NW,10.4,-,N/A,Thunderstorm,Mostly Cloudy,320,2013-08-25 07:15:00
2:35 AM,73.4,71.6,94,29.86,1.2,NE,17.3,55.2,0.20,Rain-Thunderstorm,Thunderstorms and Rain,40,2013-08-25 07:35:00
2:55 AM,71.6,71.6,100,29.87,10.0,North,5.8,-,0.21,Thunderstorm,Mostly Cloudy,360,2013-08-25 07:55:00
3:15 AM,71.6,69.8,94,29.87,10.0,NW,15.0,-,N/A,Thunderstorm,Scattered Clouds,310,2013-08-25 08:15:00
3:35 AM,75.2,64.4,69,29.84,1.8,North,13.8,42.6,0.12,Rain-Thunderstorm,Thunderstorms and Rain,360,2013-08-25 08:35:00
3:55 AM,69.8,69.8,100,29.83,10.0,Calm,Calm,-,0.12,Thunderstorm,Scattered Clouds,0,2013-08-25 08:55:00
4:15 AM,68.0,68.0,100,29.85,10.0,South,5.8,-,N/A,,Clear,170,2013-08-25 09:15:00
4:35 AM,69.8,69.8,100,29.86,10.0,SSW,3.5,-,N/A,Thunderstorm,Scattered Clouds,210,2013-08-25 09:35:00
4:55 AM,69.8,69.8,100,29.86,10.0,South,5.8,-,N/A,,Scattered Clouds,180,2013-08-25 09:55:00
5:15 AM,68.0,68.0,100,29.86,10.0,SSW,5.8,-,N/A,,Scattered Clouds,200,2013-08-25 10:15:00
5:35 AM,68.0,68.0,100,29.86,10.0,South,5.8,-,N/A,,Partly Cloudy,180,2013-08-25 10:35:00
5:55 AM,68.0,68.0,100,29.87,10.0,SSW,4.6,-,N/A,,Scattered Clouds,200,2013-08-25 10:55:00
6:15 AM,69.8,69.8,100,29.88,10.0,South,4.6,-,N/A,,Mostly Cloudy,170,2013-08-25 11:15:00
6:35 AM,69.8,69.8,100,29.89,10.0,Calm,Calm,-,N/A,,Mostly Cloudy,0,2013-08-25 11:35:00
6:55 AM,69.8,69.8,100,29.89,10.0,Calm,Calm,-,N/A,,Mostly Cloudy,0,2013-08-25 11:55:00
7:15 AM,68.0,68.0,100,29.89,10.0,Calm,Calm,-,N/A,,Scattered Clouds,0,2013-08-25 12:15:00
7:35 AM,68.0,68.0,100,29.89,10.0,Calm,Calm,-,N/A,,Scattered Clouds,0,2013-08-25 12:35:00
7:55 AM,71.6,71.6,100,29.90,10.0,North,4.6,-,N/A,,Partly Cloudy,10,2013-08-25 12:55:00
8:15 AM,73.4,73.4,100,29.90,10.0,NNE,3.5,-,N/A,,Clear,20,2013-08-25 13:15:00
8:35 AM,73.4,73.4,100,29.90,10.0,Calm,Calm,-,N/A,,Clear,0,2013-08-25 13:35:00
8:55 AM,75.2,73.4,94,29.91,10.0,Calm,Calm,-,N/A,,Clear,0,2013-08-25 13:55:00
9:15 AM,77.0,75.2,94,29.90,10.0,Calm,Calm,-,N/A,,Clear,0,2013-08-25 14:15:00
9:35 AM,77.0,75.2,94,29.90,10.0,Calm,Calm,-,N/A,,Clear,0,2013-08-25 14:35:00
9:55 AM,80.6,75.2,84,29.90,10.0,Calm,Calm,-,N/A,,Clear,0,2013-08-25 14:55:00
10:15 AM,80.6,75.2,84,29.91,10.0,Calm,Calm,-,N/A,,Clear,0,2013-08-25 15:15:00
10:55 AM,82.4,75.2,79,29.92,10.0,NNE,3.5,-,N/A,,Clear,20,2013-08-25 15:55:00
11:15 AM,84.2,73.4,70,29.92,10.0,Calm,Calm,-,N/A,,Clear,0,2013-08-25 16:15:00
11:35 AM,84.2,73.4,70,29.92,10.0,Calm,Calm,-,N/A,,Clear,0,2013-08-25 16:35:00
11:55 AM,86.0,71.6,62,29.92,10.0,Calm,Calm,-,N/A,,Unknown,0,2013-08-25 16:55:00
12:15 PM,86.0,73.4,66,29.92,10.0,East,4.6,-,N/A,,Unknown,80,2013-08-25 17:15:00
12:35 PM,86.0,73.4,66,29.92,10.0,East,4.6,-,N/A,,Unknown,90,2013-08-25 17:35:00
12:55 PM,87.8,73.4,62,29.92,10.0,East,5.8,-,N/A,,Unknown,90,2013-08-25 17:55:00
1:15 PM,87.8,71.6,58,29.91,10.0,NNE,3.5,-,N/A,,Unknown,20,2013-08-25 18:15:00
1:35 PM,89.6,71.6,55,29.91,10.0,ENE,5.8,-,N/A,,Unknown,60,2013-08-25 18:35:00
1:55 PM,89.6,68.0,49,29.91,10.0,Calm,Calm,-,N/A,,Unknown,0,2013-08-25 18:55:00
2:15 PM,89.6,68.0,49,29.90,10.0,East,6.9,-,N/A,,Unknown,80,2013-08-25 19:15:00
2:35 PM,91.4,68.0,46,29.91,10.0,NNE,4.6,-,N/A,,Unknown,30,2013-08-25 19:35:00
2:55 PM,89.6,71.6,55,29.90,10.0,NNE,8.1,-,N/A,,Unknown,30,2013-08-25 19:55:00
3:15 PM,91.4,71.6,52,29.90,10.0,NNE,8.1,-,N/A,,Unknown,20,2013-08-25 20:15:00
3:35 PM,91.4,69.8,49,29.90,10.0,NNE,6.9,-,N/A,,Unknown,20,2013-08-25 20:35:00
3:55 PM,91.4,68.0,46,29.90,10.0,NNE,6.9,-,N/A,,Unknown,20,2013-08-25 20:55:00
4:15 PM,91.4,68.0,46,29.90,10.0,North,6.9,-,N/A,,Unknown,10,2013-08-25 21:15:00
4:35 PM,91.4,68.0,46,29.90,10.0,NNE,5.8,-,N/A,,Clear,30,2013-08-25 21:35:00
4:55 PM,91.4,68.0,46,29.90,10.0,North,8.1,-,N/A,,Clear,10,2013-08-25 21:55:00
5:15 PM,91.4,68.0,46,29.91,10.0,NNE,6.9,-,N/A,,Clear,30,2013-08-25 22:15:00
5:35 PM,91.4,68.0,46,29.90,10.0,NNE,5.8,-,N/A,,Clear,30,2013-08-25 22:35:00
5:55 PM,91.4,68.0,46,29.90,10.0,NNE,6.9,-,N/A,,Clear,30,2013-08-25 22:55:00
6:15 PM,91.4,71.6,52,29.91,10.0,NNE,4.6,-,N/A,,Clear,30,2013-08-25 23:15:00
6:35 PM,89.6,71.6,55,29.91,10.0,NNE,5.8,-,N/A,,Clear,30,2013-08-25 23:35:00
6:55 PM,89.6,71.6,55,29.91,10.0,NNE,5.8,-,N/A,,Clear,30,2013-08-25 23:55:00
7:15 PM,87.8,71.6,58,29.91,10.0,NE,3.5,-,N/A,,Clear,40,2013-08-26 00:15:00
7:35 PM,86.0,71.6,62,29.91,10.0,Calm,Calm,-,N/A,,Clear,0,2013-08-26 00:35:00
7:55 PM,84.2,71.6,66,29.91,10.0,NE,3.5,-,N/A,,Clear,50,2013-08-26 00:55:00
8:15 PM,84.2,71.6,66,29.92,10.0,East,3.5,-,N/A,,Clear,80,2013-08-26 01:15:00
8:35 PM,84.2,71.6,66,29.93,10.0,East,4.6,-,N/A,,Clear,80,2013-08-26 01:35:00
8:55 PM,80.6,73.4,79,29.93,10.0,East,3.5,-,N/A,,Clear,80,2013-08-26 01:55:00
9:15 PM,80.6,71.6,74,29.94,10.0,NE,4.6,-,N/A,,Clear,50,2013-08-26 02:15:00
9:35 PM,80.6,71.6,74,29.95,10.0,ENE,3.5,-,N/A,,Clear,60,2013-08-26 02:35:00
9:55 PM,82.4,69.8,66,29.95,10.0,Calm,Calm,-,N/A,,Clear,0,2013-08-26 02:55:00
10:15 PM,77.0,73.4,89,29.96,10.0,Calm,Calm,-,N/A,,Clear,0,2013-08-26 03:15:00
10:35 PM,77.0,71.6,83,29.96,10.0,NNW,3.5,-,N/A,,Clear,340,2013-08-26 03:35:00
10:55 PM,75.2,73.4,94,29.97,10.0,North,4.6,-,N/A,,Clear,360,2013-08-26 03:55:00
11:15 PM,75.2,73.4,94,29.97,10.0,Calm,Calm,-,N/A,,Clear,0,2013-08-26 04:15:00
11:35 PM,73.4,73.4,100,29.96,10.0,Calm,Calm,-,N/A,,Clear,0,2013-08-26 04:35:00
11:55 PM,73.4,73.4,100,29.96,10.0,SSW,3.5,-,N/A,,Clear,200,2013-08-26 04:55:00